FW7539 Weather Reports


Display with metric or nautical units.
time (UTC)temp
F
wind
direction
speed
MPH
gust
MPH
rain 1hr
in
rain 24hr
in
rain mn
in
humidity
%
barometer
mb
20260831030449 74 0 0.0 0.0 0.00 0.00 0.00 79 1018.3
20260831025949 74 0 0.0 0.0 0.00 0.00 0.00 79 1018.3
20260831025449 74 0 0.0 0.0 0.00 0.00 0.00 79 1018.2
20260831024949 74 0 0.0 0.0 0.00 0.00 0.00 79 1018.3
20260831024449 74 0 0.0 0.0 0.00 0.00 0.00 78 1018.3
20260831024010 74 0 0.0 0.0 0.00 0.00 0.00 78 1018.3
20260831023449 74 0 0.0 0.0 0.00 0.00 0.00 78 1018.3
20260831022949 74 0 0.0 0.0 0.00 0.00 0.00 78 1018.3
20260831022449 74 0 0.0 0.0 0.00 0.00 0.00 77 1018.2
20260831021949 74 0 0.0 0.0 0.00 0.00 0.00 78 1018.3
20260831021449 75 0 0.0 0.0 0.00 0.00 0.00 77 1018.3
20260831020948 75 0 0.0 0.0 0.00 0.00 0.00 77 1018.2
20260831020449 75 0 0.0 0.0 0.00 0.00 0.00 77 1018.2
20260831015949 75 0 0.0 0.0 0.00 0.00 0.00 76 1018.2
20260831015448 75 0 0.0 0.0 0.00 0.00 0.00 76 1018.2
20260831014949 75 0 0.0 0.0 0.00 0.00 0.00 75 1018.2
20260831014449 75 0 0.0 0.0 0.00 0.00 0.00 76 1018.2
20260831013949 76 0 0.0 0.0 0.00 0.00 0.00 75 1018.2
20260831013510 76 0 0.0 0.0 0.00 0.00 0.00 76 1018.1
20260831012949 76 0 0.0 0.0 0.00 0.00 0.00 75 1018.1
20260831012449 76 0 0.0 0.0 0.00 0.00 0.00 74 1018.2
20260831011949 76 0 0.0 0.0 0.00 0.00 0.00 74 1018.1
20260831011449 76 0 0.0 0.0 0.00 0.00 0.00 74 1018.0
20260831011011 77 0 0.0 0.0 0.00 0.00 0.00 73 1017.9
20260831010449 77 0 0.0 0.0 0.00 0.00 0.00 73 1017.9
20260831005949 77 221 0.0 1.0 0.00 0.00 0.00 73 1017.9
20260831005449 77 221 0.0 1.0 0.00 0.00 0.00 71 1017.8
20260831004949 77 221 0.0 1.0 0.00 0.00 0.00 72 1017.8
20260831004449 77 0 0.0 0.0 0.00 0.00 0.00 71 1017.6
20260831003949 78 0 0.0 0.0 0.00 0.00 0.00 71 1017.5
20260831003449 78 0 0.0 0.0 0.00 0.00 0.00 71 1017.5
20260831002949 78 0 0.0 0.0 0.00 0.00 0.00 70 1017.6
20260831002510 78 0 0.0 0.0 0.00 0.00 0.00 70 1017.6
20260831002011 79 0 0.0 0.0 0.00 0.00 0.00 69 1017.6
20260831001449 79 0 0.0 0.0 0.00 0.00 0.00 68 1017.5
20260831001010 80 0 0.0 0.0 0.00 0.00 0.00 68 1017.5
20260831000449 80 221 0.0 1.0 0.00 0.00 0.00 67 1017.5
20260830235949 80 221 0.0 1.0 0.00 0.00 0.00 66 1017.4
20260830235449 81 221 0.0 1.0 0.00 0.00 0.00 67 1017.5
20260830234949 81 221 0.0 1.0 0.00 0.00 0.00 64 1017.5
20260830234449 82 0 0.0 0.0 0.00 0.00 0.00 64 1017.5
20260830233949 82 221 0.0 1.0 0.00 0.00 0.00 62 1017.5
20260830233449 82 221 0.0 1.0 0.00 0.00 0.00 61 1017.4
20260830233010 83 221 0.0 1.0 0.00 0.00 0.00 61 1017.4
20260830232450 84 221 0.0 1.0 0.00 0.00 0.00 60 1017.3
20260830231949 84 221 0.0 1.0 0.00 0.00 0.00 58 1017.2
20260830231450 85 221 0.0 1.0 0.00 0.00 0.00 57 1017.1
20260830230949 85 221 0.0 1.0 0.00 0.00 0.00 57 1017.0
20260830230449 85 0 0.0 0.0 0.00 0.00 0.00 56 1017.0
20260830225949 86 0 0.0 0.0 0.00 0.00 0.00 54 1017.0
20260830225449 86 221 0.0 1.0 0.00 0.00 0.00 53 1017.0
20260830224949 86 221 0.0 2.0 0.00 0.00 0.00 53 1016.9
20260830224449 86 220 0.0 2.0 0.00 0.00 0.00 51 1016.9
20260830223950 87 233 1.0 3.0 0.00 0.00 0.00 53 1017.0
20260830223449 87 237 1.0 3.0 0.00 0.00 0.00 53 1017.0
20260830222949 86 240 1.0 2.0 0.00 0.00 0.00 52 1017.1
20260830222449 86 244 1.0 3.0 0.00 0.00 0.00 51 1017.1
20260830221949 86 239 1.0 3.0 0.00 0.00 0.00 51 1017.1
20260830221449 86 231 1.0 3.0 0.00 0.00 0.00 51 1016.9
20260830220949 86 234 1.0 4.0 0.00 0.00 0.00 51 1016.7
20260830220450 86 247 1.0 6.0 0.00 0.00 0.00 49 1016.9
20260830220010 86 256 1.0 6.0 0.00 0.00 0.00 49 1017.0
20260830215511 87 249 2.0 10.0 0.00 0.00 0.00 48 1017.1
20260830215011 87 237 2.0 10.0 0.00 0.00 0.00 50 1017.1
20260830214449 88 236 1.0 6.0 0.00 0.00 0.00 47 1017.1
20260830213949 88 204 1.0 4.0 0.00 0.00 0.00 47 1017.2
20260830213449 88 195 2.0 7.0 0.00 0.00 0.00 46 1017.2
20260830212949 88 224 2.0 7.0 0.00 0.00 0.00 46 1017.2
20260830212449 88 222 2.0 4.0 0.00 0.00 0.00 47 1017.2
20260830212010 88 199 2.0 4.0 0.00 0.00 0.00 46 1017.2
20260830211511 88 211 2.0 4.0 0.00 0.00 0.00 48 1017.2
20260830211010 88 238 1.0 5.0 0.00 0.00 0.00 46 1017.3
20260830210450 88 233 2.0 5.0 0.00 0.00 0.00 47 1017.4
20260830205949 88 229 1.0 4.0 0.00 0.00 0.00 45 1017.5
20260830205449 88 242 1.0 5.0 0.00 0.00 0.00 46 1017.5
20260830204949 88 237 2.0 5.0 0.00 0.00 0.00 45 1017.6
20260830204449 89 221 2.0 5.0 0.00 0.00 0.00 44 1017.6
20260830203950 89 230 2.0 5.0 0.00 0.00 0.00 43 1017.7
20260830203449 89 222 1.0 4.0 0.00 0.00 0.00 46 1017.7
20260830202949 89 217 1.0 4.0 0.00 0.00 0.00 45 1017.7
20260830202449 88 238 1.0 3.0 0.00 0.00 0.00 47 1017.9
20260830201949 88 358 1.0 4.0 0.00 0.00 0.00 49 1018.0
20260830201450 88 296 1.0 7.0 0.00 0.00 0.00 45 1018.0
20260830200950 88 245 2.0 7.0 0.00 0.00 0.00 45 1018.1
20260830200449 88 235 2.0 5.0 0.00 0.00 0.00 43 1018.2
20260830200010 89 262 1.0 5.0 0.00 0.00 0.00 46 1018.2
20260830195449 89 271 1.0 5.0 0.00 0.00 0.00 44 1018.3
20260830194949 89 287 1.0 4.0 0.00 0.00 0.00 46 1018.4
20260830194511 89 251 2.0 5.0 0.00 0.00 0.00 44 1018.5
20260830193949 88 190 2.0 7.0 0.00 0.00 0.00 46 1018.6
20260830193450 88 214 2.0 7.0 0.00 0.00 0.00 47 1018.7
20260830192949 88 246 2.0 6.0 0.00 0.00 0.00 48 1018.8
20260830192449 88 264 1.0 4.0 0.00 0.00 0.00 45 1018.8
20260830191949 88 230 1.0 6.0 0.00 0.00 0.00 46 1018.9
20260830191449 88 334 2.0 6.0 0.00 0.00 0.00 46 1019.0
20260830190950 88 11 2.0 8.0 0.00 0.00 0.00 47 1019.1
20260830190449 88 331 2.0 8.0 0.00 0.00 0.00 47 1019.2
20260830185949 88 289 2.0 7.0 0.00 0.00 0.00 47 1019.3
20260830185511 88 313 2.0 7.0 0.00 0.00 0.00 46 1019.4
20260830184949 88 346 3.0 9.0 0.00 0.00 0.00 47 1019.6
20260830184450 88 356 2.0 9.0 0.00 0.00 0.00 47 1019.6
20260830183949 88 337 2.0 10.0 0.00 0.00 0.00 47 1019.7
20260830183449 88 277 3.0 10.0 0.00 0.00 0.00 47 1019.8
20260830182950 88 263 2.0 9.0 0.00 0.00 0.00 47 1019.8
20260830182450 87 257 2.0 7.0 0.00 0.00 0.00 49 1019.9
20260830182010 87 247 3.0 7.0 0.00 0.00 0.00 48 1020.0
20260830181449 87 275 3.0 7.0 0.00 0.00 0.00 49 1020.0
20260830180950 87 301 2.0 6.0 0.00 0.00 0.00 48 1020.1
20260830180450 87 323 2.0 11.0 0.00 0.00 0.00 47 1020.2
20260830175949 87 307 2.0 11.0 0.00 0.00 0.00 47 1020.2
20260830175511 88 255 2.0 5.0 0.00 0.00 0.00 48 1020.3
20260830175010 88 274 2.0 5.0 0.00 0.00 0.00 47 1020.3
20260830174450 88 279 2.0 5.0 0.00 0.00 0.00 49 1020.3
20260830173950 88 224 2.0 5.0 0.00 0.00 0.00 50 1020.3
20260830173450 88 228 2.0 5.0 0.00 0.00 0.00 52 1020.4
20260830173011 88 5 2.0 5.0 0.00 0.00 0.00 53 1020.4
20260830172449 88 328 2.0 9.0 0.00 0.00 0.00 52 1020.5
20260830172011 87 279 2.0 9.0 0.00 0.00 0.00 50 1020.5
20260830171449 87 258 2.0 9.0 0.00 0.00 0.00 50 1020.6
20260830171011 87 248 2.0 9.0 0.00 0.00 0.00 51 1020.6
20260830170449 87 243 3.0 8.0 0.00 0.00 0.00 50 1020.6
20260830165949 87 228 3.0 11.0 0.00 0.00 0.00 51 1020.5
20260830165449 87 201 2.0 11.0 0.00 0.00 0.00 49 1020.4
20260830164950 87 235 2.0 7.0 0.00 0.00 0.00 52 1020.5
20260830164510 87 251 2.0 11.0 0.00 0.00 0.00 52 1020.5
20260830164011 87 241 2.0 11.0 0.00 0.00 0.00 51 1020.4
20260830163449 87 209 2.0 8.0 0.00 0.00 0.00 53 1020.4
20260830162950 87 235 2.0 8.0 0.00 0.00 0.00 51 1020.3
20260830162449 86 257 2.0 9.0 0.00 0.00 0.00 55 1020.4
20260830162010 86 247 2.0 9.0 0.00 0.00 0.00 53 1020.4
20260830161449 86 247 2.0 8.0 0.00 0.00 0.00 54 1020.4
20260830161010 86 249 2.0 8.0 0.00 0.00 0.00 53 1020.3
20260830160450 86 175 2.0 8.0 0.00 0.00 0.00 57 1020.3
20260830155949 86 162 3.0 8.0 0.00 0.00 0.00 57 1020.3
20260830155449 86 181 3.0 6.0 0.00 0.00 0.00 55 1020.3
20260830154950 86 154 3.0 7.0 0.00 0.00 0.00 55 1020.3
20260830154449 85 154 2.0 7.0 0.00 0.00 0.00 59 1020.3
20260830153950 85 157 2.0 9.0 0.00 0.00 0.00 59 1020.2
20260830153449 84 173 2.0 9.0 0.00 0.00 0.00 59 1020.2
20260830152949 84 193 2.0 8.0 0.00 0.00 0.00 60 1020.2
20260830152450 84 205 2.0 6.0 0.00 0.00 0.00 62 1020.2
20260830151949 84 235 2.0 6.0 0.00 0.00 0.00 61 1020.2
20260830151450 84 239 2.0 3.0 0.00 0.00 0.00 63 1020.1
20260830150949 83 258 1.0 5.0 0.00 0.00 0.00 63 1020.1
20260830150450 82 267 1.0 5.0 0.00 0.00 0.00 64 1020.0
20260830150011 82 244 2.0 5.0 0.00 0.00 0.00 64 1020.1
20260830145449 82 174 2.0 5.0 0.00 0.00 0.00 66 1020.0
20260830144950 82 149 2.0 7.0 0.00 0.00 0.00 66 1019.9
20260830144449 81 196 2.0 7.0 0.00 0.00 0.00 66 1019.8
20260830143950 81 243 1.0 4.0 0.00 0.00 0.00 67 1019.8
20260830143449 80 237 1.0 3.0 0.00 0.00 0.00 67 1019.9
20260830142950 80 217 2.0 5.0 0.00 0.00 0.00 67 1019.7
20260830142510 80 216 2.0 5.0 0.00 0.00 0.00 66 1019.7
20260830142011 80 163 1.0 5.0 0.00 0.00 0.00 67 1019.6
20260830141449 79 143 1.0 5.0 0.00 0.00 0.00 70 1019.6
20260830140950 79 143 2.0 5.0 0.00 0.00 0.00 68 1019.4
20260830140450 78 153 1.0 4.0 0.00 0.00 0.00 72 1019.4
20260830135949 78 163 1.0 4.0 0.00 0.00 0.00 71 1019.4
20260830135450 77 146 1.0 3.0 0.00 0.00 0.00 73 1019.3
20260830134949 77 131 1.0 3.0 0.00 0.00 0.00 74 1019.4
20260830134450 76 132 1.0 3.0 0.00 0.00 0.00 74 1019.3
20260830134010 76 133 2.0 5.0 0.00 0.00 0.00 73 1019.3
20260830133450 75 137 1.0 5.0 0.00 0.00 0.00 74 1019.4
20260830132949 75 144 1.0 4.0 0.00 0.00 0.00 74 1019.4
20260830132510 75 150 1.0 4.0 0.00 0.00 0.00 76 1019.5
20260830131950 74 168 1.0 3.0 0.00 0.00 0.00 76 1019.6
20260830131450 73 194 1.0 3.0 0.00 0.00 0.00 77 1019.5
20260830130949 73 206 1.0 2.0 0.00 0.00 0.00 78 1019.6
20260830130450 72 207 0.0 2.0 0.00 0.00 0.00 79 1019.7
20260830125949 72 208 0.0 2.0 0.00 0.00 0.00 80 1019.7
20260830125511 71 210 0.0 2.0 0.00 0.00 0.00 80 1019.8
20260830124949 71 239 0.0 1.0 0.00 0.00 0.00 82 1019.7
20260830124450 70 239 0.0 1.0 0.00 0.00 0.00 82 1019.7
20260830123949 70 239 0.0 2.0 0.00 0.00 0.00 82 1019.8
20260830123450 69 239 0.0 2.0 0.00 0.00 0.00 83 1019.8
20260830122949 69 0 0.0 0.0 0.00 0.00 0.00 84 1019.9
20260830122450 68 0 0.0 0.0 0.00 0.00 0.00 85 1019.9
20260830121949 68 0 0.0 0.0 0.00 0.00 0.00 85 1019.8
20260830121511 68 0 0.0 0.0 0.00 0.00 0.00 85 1019.9
20260830120949 68 0 0.0 0.0 0.00 0.00 0.00 85 1019.9
20260830120450 67 0 0.0 0.0 0.00 0.00 0.00 85 1019.8
20260830115949 67 0 0.0 0.0 0.00 0.00 0.00 85 1019.8
20260830115450 67 0 0.0 0.0 0.00 0.00 0.00 85 1019.7
20260830114949 67 0 0.0 0.0 0.00 0.00 0.00 85 1019.6
20260830114450 66 0 0.0 0.0 0.00 0.00 0.00 85 1019.5
20260830113949 66 0 0.0 0.0 0.00 0.00 0.00 85 1019.4
20260830113510 66 0 0.0 0.0 0.00 0.00 0.00 85 1019.3
20260830112950 66 0 0.0 0.0 0.00 0.00 0.00 85 1019.3
20260830112510 66 0 0.0 0.0 0.00 0.00 0.00 84 1019.2
20260830111950 67 0 0.0 0.0 0.00 0.00 0.00 84 1019.2
20260830111450 67 0 0.0 0.0 0.00 0.00 0.00 84 1019.2
20260830110950 67 0 0.0 0.0 0.00 0.00 0.00 84 1019.2
20260830110450 67 0 0.0 0.0 0.00 0.00 0.00 84 1019.3
20260830105949 67 0 0.0 0.0 0.00 0.00 0.00 84 1019.3
20260830105450 67 0 0.0 0.0 0.00 0.00 0.00 83 1019.2
20260830104949 67 0 0.0 0.0 0.00 0.00 0.00 83 1019.2
20260830104450 68 0 0.0 0.0 0.00 0.00 0.00 83 1019.1
20260830103949 68 0 0.0 0.0 0.00 0.00 0.00 83 1019.2
20260830103450 68 0 0.0 0.0 0.00 0.00 0.00 83 1019.2
20260830102950 68 0 0.0 0.0 0.00 0.00 0.00 83 1019.2
20260830102449 68 0 0.0 0.0 0.00 0.00 0.00 82 1019.2
20260830101950 68 0 0.0 0.0 0.00 0.00 0.00 82 1019.1
20260830101450 69 0 0.0 0.0 0.00 0.00 0.00 82 1019.2
20260830100949 69 0 0.0 0.0 0.00 0.00 0.00 81 1019.2
20260830100511 69 0 0.0 0.0 0.00 0.00 0.00 82 1019.3
20260830095950 69 0 0.0 0.0 0.00 0.00 0.00 81 1019.2
20260830095449 69 0 0.0 0.0 0.00 0.00 0.00 81 1019.2
20260830094951 69 215 0.0 1.0 0.00 0.00 0.00 81 1019.2
20260830094449 70 215 0.0 1.0 0.00 0.00 0.00 80 1019.2
20260830094011 70 215 0.0 1.0 0.00 0.00 0.00 80 1019.1
20260830093450 70 215 0.0 1.0 0.00 0.00 0.00 80 1019.2
20260830092950 70 221 0.0 2.0 0.00 0.00 0.00 80 1019.1
20260830092450 70 224 0.0 2.0 0.00 0.00 0.00 80 1019.0
20260830092011 70 252 0.0 1.0 0.00 0.00 0.00 80 1019.0
20260830091450 70 0 0.0 0.0 0.00 0.00 0.00 80 1018.9
20260830091011 70 0 0.0 0.0 0.00 0.00 0.00 80 1019.0
20260830090450 70 0 0.0 0.0 0.00 0.00 0.00 80 1019.1
20260830085949 70 0 0.0 0.0 0.00 0.00 0.00 80 1019.0
20260830085450 70 0 0.0 0.0 0.00 0.00 0.00 80 1019.0
20260830084950 70 252 0.0 1.0 0.00 0.00 0.00 80 1019.1
20260830084450 70 252 0.0 1.0 0.00 0.00 0.00 81 1019.1
20260830083949 70 252 0.0 1.0 0.00 0.00 0.00 81 1019.0
20260830083450 70 252 0.0 1.0 0.00 0.00 0.00 81 1019.1
20260830082950 70 252 0.0 1.0 0.00 0.00 0.00 81 1019.1
20260830082511 69 0 0.0 0.0 0.00 0.00 0.00 82 1019.1
20260830082011 69 0 0.0 0.0 0.00 0.00 0.00 81 1019.2
20260830081450 69 0 0.0 0.0 0.00 0.00 0.00 82 1019.1
20260830080949 69 0 0.0 0.0 0.00 0.00 0.00 81 1019.1
20260830080450 69 0 0.0 0.0 0.00 0.00 0.00 82 1019.1
20260830075950 69 0 0.0 0.0 0.00 0.00 0.00 81 1019.2
20260830075450 69 0 0.0 0.0 0.00 0.00 0.00 82 1019.2
20260830075011 69 0 0.0 0.0 0.00 0.00 0.00 82 1019.2
20260830074450 69 0 0.0 0.0 0.00 0.00 0.00 82 1019.2
20260830073949 69 0 0.0 0.0 0.00 0.00 0.00 82 1019.3
20260830073449 69 0 0.0 0.0 0.00 0.00 0.00 82 1019.3
20260830072949 69 0 0.0 0.0 0.00 0.00 0.00 82 1019.4
20260830072450 69 0 0.0 0.0 0.00 0.00 0.00 82 1019.5
20260830071950 69 0 0.0 0.0 0.00 0.00 0.00 82 1019.5
20260830071450 69 0 0.0 0.0 0.00 0.00 0.00 82 1019.5
20260830070950 69 0 0.0 0.0 0.00 0.00 0.00 82 1019.5
20260830070450 69 0 0.0 0.0 0.00 0.00 0.00 82 1019.6
20260830065950 69 0 0.0 0.0 0.00 0.00 0.00 82 1019.6
20260830065450 69 0 0.0 0.0 0.00 0.00 0.00 82 1019.6
20260830064950 69 0 0.0 0.0 0.00 0.00 0.00 82 1019.7
20260830064450 69 0 0.0 0.0 0.00 0.00 0.00 83 1019.7
20260830063950 69 0 0.0 0.0 0.00 0.00 0.00 83 1019.8
20260830063450 69 0 0.0 0.0 0.00 0.00 0.00 83 1019.8
20260830062950 69 0 0.0 0.0 0.00 0.00 0.00 83 1019.8
20260830062450 69 0 0.0 0.0 0.00 0.00 0.00 83 1019.9
20260830061950 69 0 0.0 0.0 0.00 0.00 0.00 83 1019.9
20260830061450 69 0 0.0 0.0 0.00 0.00 0.00 83 1019.9
20260830060950 69 0 0.0 0.0 0.00 0.00 0.00 83 1019.9
20260830060449 69 0 0.0 0.0 0.00 0.00 0.00 83 1019.9
20260830060011 69 0 0.0 0.0 0.00 0.00 0.00 83 1019.9
20260830055452 69 0 0.0 0.0 0.00 0.00 0.00 83 1019.9
20260830054950 68 0 0.0 0.0 0.00 0.00 0.00 83 1020.0
20260830054510 68 0 0.0 0.0 0.00 0.00 0.00 84 1019.9
20260830053949 68 0 0.0 0.0 0.00 0.00 0.00 84 1019.9
20260830053450 68 0 0.0 0.0 0.00 0.00 0.00 84 1019.9
20260830053011 68 0 0.0 0.0 0.00 0.00 0.00 84 1019.9
20260830052511 68 0 0.0 0.0 0.00 0.00 0.00 84 1019.8
20260830052011 68 0 0.0 0.0 0.00 0.00 0.00 84 1019.9
20260830051511 68 0 0.0 0.0 0.00 0.00 0.00 84 1019.9
20260830051011 68 0 0.0 0.0 0.00 0.00 0.00 84 1019.9
20260830050450 68 0 0.0 0.0 0.00 0.00 0.00 84 1019.8
20260830045950 68 0 0.0 0.0 0.00 0.00 0.00 84 1019.7
20260830045450 68 0 0.0 0.0 0.00 0.00 0.00 84 1019.7
20260830044949 68 0 0.0 0.0 0.00 0.00 0.00 84 1019.7
20260830044450 67 0 0.0 0.0 0.00 0.00 0.00 84 1019.6
20260830043950 67 0 0.0 0.0 0.00 0.00 0.00 84 1019.6
20260830043450 68 0 0.0 0.0 0.00 0.00 0.00 84 1019.6
20260830042950 68 0 0.0 0.0 0.00 0.00 0.00 83 1019.6
20260830042450 68 0 0.0 0.0 0.00 0.00 0.00 83 1019.7
20260830041950 68 0 0.0 0.0 0.00 0.00 0.00 83 1019.6
20260830041450 68 0 0.0 0.0 0.00 0.00 0.00 83 1019.7
20260830040950 68 0 0.0 0.0 0.00 0.00 0.00 83 1019.8
20260830040511 68 0 0.0 0.0 0.00 0.00 0.00 83 1019.8
20260830035950 68 0 0.0 0.0 0.00 0.00 0.00 82 1019.7
20260830035450 68 0 0.0 0.0 0.00 0.00 0.00 82 1019.7
20260830034950 68 0 0.0 0.0 0.00 0.00 0.00 82 1019.7
20260830034450 69 0 0.0 0.0 0.00 0.00 0.00 81 1019.7
20260830033950 69 0 0.0 0.0 0.00 0.00 0.00 81 1019.7
20260830033450 69 0 0.0 0.0 0.00 0.00 0.00 81 1019.7
20260830032950 69 0 0.0 0.0 0.00 0.00 0.00 80 1019.8
20260830032450 69 0 0.0 0.0 0.00 0.00 0.00 81 1019.8
20260830031950 69 0 0.0 0.0 0.00 0.00 0.00 81 1019.8
20260830031511 69 0 0.0 0.0 0.00 0.00 0.00 80 1019.7
20260830030950 69 0 0.0 0.0 0.00 0.00 0.00 80 1019.6